• In Österreich
  • Länderverzeichnis
  • Für 7 Tage
  • Wassertemperatur
  • Satellitenkarten
  • Wetterkarte
  • News
  • Widgets
  • user-avatar
    Anmelden

    Stündliche Wetter Perth

    Heute, 21 Mai, Montag

    Zeit Temperatur Niederschläge Wind Luftdruck Luftfeuchtigkeit
    00:00 +15°C° 0 mm 4 m/S 768 mmHg 38%
    01:00 +15°C° 0 mm 4 m/S 768 mmHg 39%
    02:00 +15°C° 0 mm 4 m/S 768 mmHg 40%
    03:00 +15°C° 0 mm 4 m/S 768 mmHg 42%
    04:00 +15°C° 0 mm 4 m/S 768 mmHg 43%
    05:00 +14°C° 0 mm 4 m/S 768 mmHg 45%
    06:00 +15°C° 0 mm 4 m/S 768 mmHg 46%
    07:00 +15°C° 0 mm 4 m/S 769 mmHg 48%
    08:00 +15°C° 0 mm 5 m/S 769 mmHg 54%
    09:00 +17°C° 0 mm 5 m/S 769 mmHg 49%
    10:00 +20°C° 0 mm 5 m/S 769 mmHg 44%
    11:00 +23°C° 0 mm 5 m/S 768 mmHg 39%
    12:00 +25°C° 0 mm 4 m/S 768 mmHg 36%
    13:00 +26°C° 0 mm 4 m/S 767 mmHg 33%
    14:00 +27°C° 0 mm 3 m/S 766 mmHg 29%
    15:00 +26°C° 0 mm 2 m/S 766 mmHg 31%
    16:00 +25°C° 0 mm 2 m/S 766 mmHg 33%
    17:00 +24°C° 0 mm 2 m/S 766 mmHg 36%
    18:00 +21°C° 0 mm 2 m/S 766 mmHg 38%
    19:00 +20°C° 0 mm 3 m/S 766 mmHg 39%
    20:00 +18°C° 0 mm 3 m/S 767 mmHg 41%
    21:00 +18°C° 0 mm 3 m/S 767 mmHg 41%
    22:00 +18°C° 0 mm 4 m/S 767 mmHg 42%
    23:00 +17°C° 0 mm 4 m/S 767 mmHg 42%

    Morgen, 22 Mai, Dienstag

    Zeit Temperatur Niederschläge Wind Luftdruck Luftfeuchtigkeit
    00:00 +17°C° 0 mm 4 m/S 767 mmHg 42%
    01:00 +17°C° 0 mm 4 m/S 766 mmHg 42%
    02:00 +17°C° 0 mm 4 m/S 766 mmHg 43%
    03:00 +17°C° 0 mm 4 m/S 766 mmHg 43%
    04:00 +15°C° 0 mm 5 m/S 766 mmHg 44%
    05:00 +15°C° 0 mm 5 m/S 766 mmHg 44%
    06:00 +16°C° 0 mm 5 m/S 766 mmHg 44%
    07:00 +16°C° 0 mm 5 m/S 766 mmHg 44%
    08:00 +16°C° 0 mm 5 m/S 766 mmHg 44%
    09:00 +20°C° 0 mm 4 m/S 766 mmHg 38%
    10:00 +22°C° 0 mm 4 m/S 766 mmHg 33%
    11:00 +26°C° 0 mm 4 m/S 766 mmHg 28%
    12:00 +27°C° 0 mm 4 m/S 765 mmHg 26%
    13:00 +28°C° 0 mm 3 m/S 764 mmHg 24%
    14:00 +29°C° 0 mm 3 m/S 764 mmHg 22%
    15:00 +27°C° 0 mm 2 m/S 764 mmHg 24%
    16:00 +26°C° 0 mm 2 m/S 764 mmHg 26%
    17:00 +25°C° 0 mm 1 m/S 764 mmHg 29%
    18:00 +23°C° 0 mm 1 m/S 764 mmHg 30%
    19:00 +22°C° 0 mm 1 m/S 764 mmHg 32%
    20:00 +19°C° 0 mm 2 m/S 764 mmHg 34%
    21:00 +19°C° 0 mm 2 m/S 764 mmHg 33%
    22:00 +19°C° 0 mm 3 m/S 764 mmHg 32%
    23:00 +18°C° 0 mm 3 m/S 764 mmHg 32%

    übermorgen, 23 Mai, Mittwoch

    Zeit Temperatur Niederschläge Wind Luftdruck Luftfeuchtigkeit
    00:00 +18°C° 0 mm 3 m/S 764 mmHg 32%
    01:00 +18°C° 0 mm 4 m/S 764 mmHg 32%
    02:00 +18°C° 0 mm 4 m/S 764 mmHg 32%
    03:00 +18°C° 0 mm 4 m/S 763 mmHg 32%
    04:00 +17°C° 0 mm 4 m/S 763 mmHg 33%
    05:00 +17°C° 0 mm 4 m/S 763 mmHg 34%
    06:00 +17°C° 0 mm 4 m/S 763 mmHg 34%
    07:00 +17°C° 0 mm 5 m/S 763 mmHg 34%
    08:00 +17°C° 0 mm 5 m/S 763 mmHg 34%
    09:00 +20°C° 0 mm 5 m/S 763 mmHg 31%
    10:00 +23°C° 0 mm 5 m/S 763 mmHg 27%
    11:00 +26°C° 0 mm 5 m/S 763 mmHg 24%
    12:00 +27°C° 0 mm 4 m/S 762 mmHg 23%
    13:00 +28°C° 0 mm 4 m/S 761 mmHg 22%
    14:00 +29°C° 0 mm 4 m/S 760 mmHg 20%
    15:00 +28°C° 0 mm 3 m/S 760 mmHg 23%
    16:00 +27°C° 0 mm 2 m/S 760 mmHg 26%
    17:00 +25°C° 0 mm 1 m/S 760 mmHg 29%
    18:00 +24°C° 0 mm 1 m/S 760 mmHg 31%
    19:00 +23°C° 0 mm 1 m/S 760 mmHg 32%
    20:00 +20°C° 0 mm 2 m/S 760 mmHg 33%
    21:00 +20°C° 0 mm 2 m/S 759 mmHg 34%
    22:00 +20°C° 0 mm 3 m/S 759 mmHg 35%
    23:00 +19°C° 0 mm 3 m/S 759 mmHg 36%

    24 Mai, Donnerstag

    Zeit Temperatur Niederschläge Wind Luftdruck Luftfeuchtigkeit
    00:00 +19°C° 0 mm 4 m/S 759 mmHg 36%
    01:00 +19°C° 0 mm 4 m/S 758 mmHg 36%
    02:00 +19°C° 0 mm 4 m/S 758 mmHg 36%
    03:00 +20°C° 0 mm 5 m/S 757 mmHg 35%
    04:00 +20°C° 0 mm 5 m/S 757 mmHg 35%
    05:00 +20°C° 0 mm 6 m/S 757 mmHg 35%
    06:00 +20°C° 0 mm 6 m/S 757 mmHg 33%
    07:00 +21°C° 0 mm 7 m/S 756 mmHg 32%
    08:00 +22°C° 0 mm 7 m/S 756 mmHg 30%
    09:00 +23°C° 0 mm 8 m/S 756 mmHg 27%
    10:00 +26°C° 0 mm 9 m/S 755 mmHg 24%
    11:00 +28°C° 0 mm 9 m/S 755 mmHg 22%
    12:00 +28°C° 0 mm 9 m/S 754 mmHg 21%
    13:00 +29°C° 0 mm 9 m/S 752 mmHg 21%
    14:00 +31°C° 0 mm 9 m/S 751 mmHg 20%
    15:00 +28°C° 0,8 mm 9 m/S 751 mmHg 31%
    16:00 +26°C° 0,8 mm 9 m/S 750 mmHg 42%
    17:00 +23°C° 0,8 mm 9 m/S 749 mmHg 52%
    18:00 +22°C° 5,5 mm 10 m/S 749 mmHg 63%
    19:00 +22°C° 5,5 mm 11 m/S 748 mmHg 74%
    20:00 +21°C° 5,5 mm 12 m/S 747 mmHg 84%
    21:00 +21°C° 6,1 mm 11 m/S 747 mmHg 82%
    22:00 +19°C° 6,1 mm 11 m/S 748 mmHg 80%
    23:00 +18°C° 6,1 mm 11 m/S 748 mmHg 78%

    25 Mai, Freitag

    Zeit Temperatur Niederschläge Wind Luftdruck Luftfeuchtigkeit
    00:00 +17°C° 0,8 mm 11 m/S 748 mmHg 78%
    01:00 +16°C° 0,8 mm 10 m/S 749 mmHg 77%
    02:00 +14°C° 0,8 mm 10 m/S 749 mmHg 77%
    03:00 +14°C° 1,2 mm 10 m/S 750 mmHg 76%
    04:00 +14°C° 1,2 mm 10 m/S 750 mmHg 76%
    05:00 +13°C° 1,2 mm 10 m/S 751 mmHg 75%
    06:00 +13°C° 0,5 mm 9 m/S 752 mmHg 74%
    07:00 +13°C° 0,5 mm 9 m/S 752 mmHg 72%
    08:00 +13°C° 0,5 mm 9 m/S 753 mmHg 71%
    09:00 +15°C° 0,3 mm 9 m/S 754 mmHg 67%
    10:00 +16°C° 0,3 mm 9 m/S 754 mmHg 63%
    11:00 +17°C° 0,3 mm 9 m/S 754 mmHg 60%
    12:00 +17°C° 0,3 mm 9 m/S 754 mmHg 60%
    13:00 +17°C° 0,3 mm 8 m/S 754 mmHg 60%
    14:00 +17°C° 0,3 mm 8 m/S 754 mmHg 60%
    15:00 +17°C° 0,1 mm 7 m/S 754 mmHg 63%
    16:00 +16°C° 0,1 mm 7 m/S 754 mmHg 66%
    17:00 +16°C° 0,1 mm 6 m/S 754 mmHg 69%
    18:00 +16°C° 0,1 mm 7 m/S 754 mmHg 70%
    19:00 +16°C° 0,1 mm 8 m/S 754 mmHg 72%
    20:00 +15°C° 0,1 mm 9 m/S 754 mmHg 73%
    21:00 +15°C° 3,8 mm 9 m/S 754 mmHg 73%
    22:00 +14°C° 3,8 mm 10 m/S 755 mmHg 73%
    23:00 +14°C° 3,8 mm 10 m/S 755 mmHg 74%

    26 Mai, Samstag

    Zeit Temperatur Niederschläge Wind Luftdruck Luftfeuchtigkeit
    00:00 +15°C° 0,1 mm 9 m/S 755 mmHg 73%
    01:00 +15°C° 0,1 mm 8 m/S 756 mmHg 73%
    02:00 +14°C° 0,1 mm 7 m/S 756 mmHg 72%
    03:00 +14°C° 0,2 mm 7 m/S 757 mmHg 74%
    04:00 +14°C° 0,2 mm 7 m/S 757 mmHg 76%
    05:00 +14°C° 0,2 mm 6 m/S 758 mmHg 78%
    06:00 +15°C° 0,3 mm 6 m/S 758 mmHg 78%
    07:00 +15°C° 0,3 mm 6 m/S 759 mmHg 78%
    08:00 +15°C° 0,3 mm 6 m/S 759 mmHg 78%
    09:00 +16°C° 0,1 mm 6 m/S 760 mmHg 73%
    10:00 +17°C° 0,1 mm 6 m/S 760 mmHg 68%
    11:00 +19°C° 0,1 mm 6 m/S 760 mmHg 63%
    12:00 +19°C° 0,1 mm 6 m/S 760 mmHg 63%
    13:00 +19°C° 0,1 mm 6 m/S 760 mmHg 62%
    14:00 +19°C° 0,1 mm 6 m/S 759 mmHg 61%
    15:00 +19°C° 0,1 mm 5 m/S 760 mmHg 65%
    16:00 +17°C° 0,1 mm 5 m/S 760 mmHg 69%
    17:00 +17°C° 0,1 mm 5 m/S 760 mmHg 72%
    18:00 +17°C° 0,1 mm 5 m/S 761 mmHg 75%
    19:00 +16°C° 0,1 mm 5 m/S 761 mmHg 77%
    20:00 +17°C° 0,1 mm 4 m/S 762 mmHg 80%
    21:00 +17°C° 0,1 mm 4 m/S 762 mmHg 80%
    22:00 +17°C° 0,1 mm 4 m/S 762 mmHg 81%
    23:00 +17°C° 0,1 mm 4 m/S 762 mmHg 81%
    Mehr zeigen